Time,TemperatureF,DewpointF,PressureIn,WindDirection,WindDirectionDegrees,WindSpeedMPH,WindSpeedGustMPH,Humidity,HourlyPrecipIn,Conditions,Clouds,dailyrainin,SolarRadiationWatts/m^2,SoftwareType,DateUTC
2013-03-15 00:00:00,61.7,54.8,30.17,SSE,160,8.0,8.0,78,0.00,,,0.00,0,Wunderground v.1.15,2013-03-15 05:00:00,
2013-03-15 00:06:00,61.5,54.9,30.17,SE,142,8.0,8.0,79,0.00,,,0.00,0,Wunderground v.1.15,2013-03-15 05:06:00,
2013-03-15 00:15:00,61.2,54.6,30.17,SE,138,8.0,10.0,79,0.00,,,0.00,0,Wunderground v.1.15,2013-03-15 05:15:00,
2013-03-15 00:20:00,61.1,54.5,30.17,SSE,161,7.0,7.0,79,0.00,,,0.00,0,Wunderground v.1.15,2013-03-15 05:20:00,
2013-03-15 00:25:00,60.9,54.3,30.17,South,173,6.0,7.0,79,0.00,,,0.00,0,Wunderground v.1.15,2013-03-15 05:25:00,
2013-03-15 00:30:00,60.8,54.2,30.17,South,171,6.0,6.0,79,0.00,,,0.00,0,Wunderground v.1.15,2013-03-15 05:30:00,
2013-03-15 00:36:00,60.5,54.3,30.17,South,177,6.0,6.0,80,0.00,,,0.00,0,Wunderground v.1.15,2013-03-15 05:36:00,
2013-03-15 00:40:00,60.4,54.2,30.17,SSE,165,6.0,6.0,80,0.00,,,0.00,0,Wunderground v.1.15,2013-03-15 05:40:00,
2013-03-15 00:45:00,60.2,54.0,30.17,South,169,5.0,6.0,80,0.00,,,0.00,0,Wunderground v.1.15,2013-03-15 05:45:00,
2013-03-15 00:50:00,60.0,53.8,30.17,SSE,168,4.0,5.0,80,0.00,,,0.00,0,Wunderground v.1.15,2013-03-15 05:50:00,
2013-03-15 00:55:00,59.8,53.6,30.17,South,169,4.0,5.0,80,0.00,,,0.00,0,Wunderground v.1.15,2013-03-15 05:55:00,
2013-03-15 01:00:00,59.7,53.5,30.17,South,170,3.0,3.0,80,0.00,,,0.00,0,Wunderground v.1.15,2013-03-15 06:00:00,
2013-03-15 01:10:00,59.3,53.5,30.17,South,171,3.0,9.0,81,0.00,,,0.00,0,Wunderground v.1.15,2013-03-15 06:10:00,
2013-03-15 01:15:00,59.0,53.2,30.16,South,172,3.0,9.0,81,0.00,,,0.00,0,Wunderground v.1.15,2013-03-15 06:15:00,
2013-03-15 01:20:00,59.0,53.2,30.16,South,172,2.0,2.0,81,0.00,,,0.00,0,Wunderground v.1.15,2013-03-15 06:20:00,
2013-03-15 01:25:00,59.0,53.2,30.16,South,171,1.0,2.0,81,0.00,,,0.00,0,Wunderground v.1.15,2013-03-15 06:25:00,
2013-03-15 01:35:00,58.6,52.8,30.16,South,172,1.0,1.0,81,0.00,,,0.00,0,Wunderground v.1.15,2013-03-15 06:35:00,
2013-03-15 01:40:00,58.5,52.7,30.16,South,172,1.0,1.0,81,0.00,,,0.00,0,Wunderground v.1.15,2013-03-15 06:40:00,
2013-03-15 01:45:00,58.3,52.8,30.16,South,172,1.0,2.0,82,0.00,,,0.00,0,Wunderground v.1.15,2013-03-15 06:45:00,
2013-03-15 01:50:00,58.2,52.7,30.16,South,171,1.0,1.0,82,0.00,,,0.00,0,Wunderground v.1.15,2013-03-15 06:50:00,
2013-03-15 01:55:00,58.1,52.6,30.16,South,172,1.0,1.0,82,0.00,,,0.00,0,Wunderground v.1.15,2013-03-15 06:55:00,
2013-03-15 02:00:00,58.0,52.9,30.15,South,172,1.0,3.0,83,0.00,,,0.00,0,Wunderground v.1.15,2013-03-15 07:00:00,
2013-03-15 02:10:00,57.7,52.9,30.15,South,172,2.0,2.0,84,0.00,,,0.00,0,Wunderground v.1.15,2013-03-15 07:10:00,
2013-03-15 02:15:00,57.6,52.8,30.15,South,172,0.0,2.0,84,0.00,,,0.00,0,Wunderground v.1.15,2013-03-15 07:15:00,
2013-03-15 02:20:00,57.6,52.8,30.15,South,172,0.0,2.0,84,0.00,,,0.00,0,Wunderground v.1.15,2013-03-15 07:20:00,
2013-03-15 02:30:00,57.4,52.9,30.15,South,171,1.0,2.0,85,0.00,,,0.00,0,Wunderground v.1.15,2013-03-15 07:30:00,
2013-03-15 02:35:00,57.4,52.9,30.15,South,172,1.0,2.0,85,0.00,,,0.00,0,Wunderground v.1.15,2013-03-15 07:35:00,
2013-03-15 02:45:00,57.3,53.1,30.14,South,172,2.0,3.0,86,0.00,,,0.00,0,Wunderground v.1.15,2013-03-15 07:45:00,
2013-03-15 02:50:00,57.2,53.0,30.14,South,172,1.0,1.0,86,0.00,,,0.00,0,Wunderground v.1.15,2013-03-15 07:50:00,
2013-03-15 02:55:00,57.2,53.0,30.14,South,171,1.0,2.0,86,0.00,,,0.00,0,Wunderground v.1.15,2013-03-15 07:55:00,
2013-03-15 03:00:00,57.1,53.0,30.14,South,172,1.0,1.0,86,0.00,,,0.00,0,Wunderground v.1.15,2013-03-15 08:00:00,
2013-03-15 03:10:00,56.9,52.8,30.14,South,172,0.0,0.0,86,0.00,,,0.00,0,Wunderground v.1.15,2013-03-15 08:10:00,
2013-03-15 03:15:00,56.8,52.7,30.13,South,171,0.0,0.0,86,0.00,,,0.00,0,Wunderground v.1.15,2013-03-15 08:15:00,
2013-03-15 03:20:00,56.7,52.6,30.13,South,172,0.0,4.0,86,0.00,,,0.00,0,Wunderground v.1.15,2013-03-15 08:20:00,
2013-03-15 03:25:00,56.5,52.4,30.13,South,172,2.0,4.0,86,0.00,,,0.00,0,Wunderground v.1.15,2013-03-15 08:25:00,
2013-03-15 03:30:00,56.1,51.7,30.12,South,172,4.0,4.0,85,0.00,,,0.00,0,Wunderground v.1.15,2013-03-15 08:30:00,
2013-03-15 03:35:00,55.8,51.4,30.12,South,172,4.0,4.0,85,0.00,,,0.00,0,Wunderground v.1.15,2013-03-15 08:35:00,
2013-03-15 03:40:00,55.5,51.1,30.12,South,172,4.0,4.0,85,0.00,,,0.00,0,Wunderground v.1.15,2013-03-15 08:40:00,
2013-03-15 03:50:00,55.2,51.4,30.12,South,174,5.0,5.0,87,0.00,,,0.00,0,Wunderground v.1.15,2013-03-15 08:50:00,
2013-03-15 04:00:00,55.1,51.3,30.12,South,174,3.0,4.0,87,0.00,,,0.00,0,Wunderground v.1.15,2013-03-15 09:00:00,
2013-03-15 04:05:00,55.0,51.5,30.12,South,173,3.0,4.0,88,0.00,,,0.00,0,Wunderground v.1.15,2013-03-15 09:05:00,
2013-03-15 04:10:00,55.0,51.5,30.12,South,175,2.0,2.0,88,0.00,,,0.00,0,Wunderground v.1.15,2013-03-15 09:10:00,
2013-03-15 04:15:00,54.9,51.4,30.12,South,173,1.0,2.0,88,0.00,,,0.00,0,Wunderground v.1.15,2013-03-15 09:15:00,
2013-03-15 04:20:00,54.8,51.3,30.12,South,175,0.0,0.0,88,0.00,,,0.00,0,Wunderground v.1.15,2013-03-15 09:20:00,
2013-03-15 04:25:00,54.7,51.2,30.12,South,175,0.0,0.0,88,0.00,,,0.00,0,Wunderground v.1.15,2013-03-15 09:25:00,
2013-03-15 04:30:00,54.6,51.1,30.12,South,175,0.0,0.0,88,0.00,,,0.00,0,Wunderground v.1.15,2013-03-15 09:30:00,
2013-03-15 04:35:00,54.5,51.0,30.12,South,174,0.0,0.0,88,0.00,,,0.00,0,Wunderground v.1.15,2013-03-15 09:35:00,
2013-03-15 04:45:00,54.2,50.7,30.12,South,175,0.0,0.0,88,0.00,,,0.00,0,Wunderground v.1.15,2013-03-15 09:45:00,
2013-03-15 04:50:00,54.0,50.5,30.12,South,175,0.0,0.0,88,0.00,,,0.00,0,Wunderground v.1.15,2013-03-15 09:50:00,
2013-03-15 04:55:00,53.8,50.3,30.12,South,175,0.0,0.0,88,0.00,,,0.00,0,Wunderground v.1.15,2013-03-15 09:55:00,
2013-03-15 05:00:00,53.7,50.2,30.12,South,173,0.0,0.0,88,0.00,,,0.00,0,Wunderground v.1.15,2013-03-15 10:00:00,
2013-03-15 05:10:00,53.3,49.8,30.12,South,175,0.0,0.0,88,0.00,,,0.00,0,Wunderground v.1.15,2013-03-15 10:10:00,
2013-03-15 05:15:00,53.1,49.6,30.12,South,174,0.0,0.0,88,0.00,,,0.00,0,Wunderground v.1.15,2013-03-15 10:15:00,
2013-03-15 05:20:00,52.9,49.4,30.12,South,175,0.0,0.0,88,0.00,,,0.00,0,Wunderground v.1.15,2013-03-15 10:20:00,
2013-03-15 05:30:00,52.5,49.4,30.11,South,175,0.0,0.0,89,0.00,,,0.00,0,Wunderground v.1.15,2013-03-15 10:30:00,
2013-03-15 05:35:00,52.2,49.1,30.11,South,175,0.0,0.0,89,0.00,,,0.00,0,Wunderground v.1.15,2013-03-15 10:35:00,
2013-03-15 05:45:00,51.9,48.8,30.11,South,175,0.0,0.0,89,0.00,,,0.00,0,Wunderground v.1.15,2013-03-15 10:45:00,
2013-03-15 05:50:00,51.7,48.6,30.11,South,175,0.0,0.0,89,0.00,,,0.00,0,Wunderground v.1.15,2013-03-15 10:50:00,
2013-03-15 06:00:00,51.4,48.6,30.11,South,175,0.0,0.0,90,0.00,,,0.00,0,Wunderground v.1.15,2013-03-15 11:00:00,
2013-03-15 06:06:00,51.3,48.5,30.11,South,175,0.0,0.0,90,0.00,,,0.00,0,Wunderground v.1.15,2013-03-15 11:06:00,
2013-03-15 06:10:00,51.1,48.3,30.11,South,175,0.0,0.0,90,0.00,,,0.00,0,Wunderground v.1.15,2013-03-15 11:10:00,
2013-03-15 06:15:00,51.0,48.2,30.12,South,175,0.0,0.0,90,0.00,,,0.00,0,Wunderground v.1.15,2013-03-15 11:15:00,
2013-03-15 06:20:00,50.8,48.0,30.12,South,175,0.0,0.0,90,0.00,,,0.00,0,Wunderground v.1.15,2013-03-15 11:20:00,
2013-03-15 06:25:00,50.7,47.9,30.12,South,175,0.0,0.0,90,0.00,,,0.00,0,Wunderground v.1.15,2013-03-15 11:25:00,
2013-03-15 06:30:00,50.6,48.1,30.13,South,175,0.0,0.0,91,0.00,,,0.00,0,Wunderground v.1.15,2013-03-15 11:30:00,
2013-03-15 06:35:00,50.4,47.9,30.13,South,175,0.0,0.0,91,0.00,,,0.00,0,Wunderground v.1.15,2013-03-15 11:35:00,
2013-03-15 06:40:00,50.3,47.5,30.13,South,175,0.0,0.0,90,0.00,,,0.00,0,Wunderground v.1.15,2013-03-15 11:40:00,
2013-03-15 06:50:00,49.9,47.4,30.13,South,175,0.0,0.0,91,0.00,,,0.00,0,Wunderground v.1.15,2013-03-15 11:50:00,
2013-03-15 07:00:00,49.5,46.7,30.13,South,175,0.0,0.0,90,0.00,,,0.00,0,Wunderground v.1.15,2013-03-15 12:00:00,
2013-03-15 07:06:00,49.2,46.7,30.13,South,175,0.0,0.0,91,0.00,,,0.00,0,Wunderground v.1.15,2013-03-15 12:06:00,
2013-03-15 07:15:00,49.0,46.5,30.13,South,175,0.0,0.0,91,0.00,,,0.00,0,Wunderground v.1.15,2013-03-15 12:15:00,
2013-03-15 07:20:00,48.9,46.4,30.13,South,175,0.0,0.0,91,0.00,,,0.00,0,Wunderground v.1.15,2013-03-15 12:20:00,
2013-03-15 07:25:00,48.8,46.3,30.13,South,175,0.0,0.0,91,0.00,,,0.00,0,Wunderground v.1.15,2013-03-15 12:25:00,
2013-03-15 07:30:00,48.7,46.2,30.14,South,175,0.0,0.0,91,0.00,,,0.00,0,Wunderground v.1.15,2013-03-15 12:30:00,
2013-03-15 07:35:00,48.6,46.1,30.14,South,175,0.0,0.0,91,0.00,,,0.00,0,Wunderground v.1.15,2013-03-15 12:35:00,
2013-03-15 07:40:00,48.5,46.0,30.14,South,175,0.0,0.0,91,0.00,,,0.00,0,Wunderground v.1.15,2013-03-15 12:40:00,
2013-03-15 07:45:00,48.5,46.0,30.14,South,175,0.0,0.0,91,0.00,,,0.00,5,Wunderground v.1.15,2013-03-15 12:45:00,
2013-03-15 07:50:00,48.4,45.9,30.14,South,175,0.0,1.0,91,0.00,,,0.00,9,Wunderground v.1.15,2013-03-15 12:50:00,
2013-03-15 08:00:00,48.6,46.4,30.14,South,175,0.0,0.0,92,0.00,,,0.00,16,Wunderground v.1.15,2013-03-15 13:00:00,
2013-03-15 08:06:00,48.7,46.5,30.14,South,175,0.0,0.0,92,0.00,,,0.00,19,Wunderground v.1.15,2013-03-15 13:06:00,
2013-03-15 08:10:00,48.7,46.5,30.14,South,174,0.0,0.0,92,0.00,,,0.00,21,Wunderground v.1.15,2013-03-15 13:10:00,
2013-03-15 08:15:00,48.8,46.6,30.14,South,175,0.0,0.0,92,0.00,,,0.00,30,Wunderground v.1.15,2013-03-15 13:15:00,
2013-03-15 08:20:00,48.9,47.0,30.14,South,175,0.0,0.0,93,0.00,,,0.00,42,Wunderground v.1.15,2013-03-15 13:20:00,
2013-03-15 08:25:00,49.1,47.2,30.14,South,174,0.0,0.0,93,0.00,,,0.00,58,Wunderground v.1.15,2013-03-15 13:25:00,
2013-03-15 08:30:00,49.4,47.5,30.14,South,174,0.0,0.0,93,0.00,,,0.00,60,Wunderground v.1.15,2013-03-15 13:30:00,
2013-03-15 08:35:00,49.8,48.1,30.14,South,175,0.0,0.0,94,0.00,,,0.00,86,Wunderground v.1.15,2013-03-15 13:35:00,
2013-03-15 08:45:00,51.2,49.8,30.14,South,173,0.0,1.0,95,0.00,,,0.00,95,Wunderground v.1.15,2013-03-15 13:45:00,
2013-03-15 08:50:00,52.2,50.8,30.14,South,175,1.0,3.0,95,0.00,,,0.00,81,Wunderground v.1.15,2013-03-15 13:50:00,
2013-03-15 08:55:00,53.2,51.8,30.14,South,173,3.0,3.0,95,0.00,,,0.00,90,Wunderground v.1.15,2013-03-15 13:55:00,
2013-03-15 09:00:00,54.2,53.1,30.14,South,174,3.0,3.0,96,0.00,,,0.00,128,Wunderground v.1.15,2013-03-15 14:00:00,
2013-03-15 09:06:00,55.2,54.1,30.14,South,173,4.0,5.0,96,0.00,,,0.00,118,Wunderground v.1.15,2013-03-15 14:06:00,
2013-03-15 09:10:00,55.8,54.7,30.14,South,188,5.0,9.0,96,0.00,,,0.00,171,Wunderground v.1.15,2013-03-15 14:10:00,
2013-03-15 09:15:00,56.3,54.9,30.14,South,191,7.0,9.0,95,0.00,,,0.00,155,Wunderground v.1.15,2013-03-15 14:15:00,
2013-03-15 09:20:00,57.2,55.8,30.14,SSW,198,8.0,8.0,95,0.00,,,0.00,207,Wunderground v.1.15,2013-03-15 14:20:00,
2013-03-15 09:25:00,58.1,56.4,30.14,SSW,192,8.0,8.0,94,0.00,,,0.00,288,Wunderground v.1.15,2013-03-15 14:25:00,
2013-03-15 09:30:00,59.0,56.7,30.14,SSW,196,8.0,11.0,92,0.00,,,0.00,285,Wunderground v.1.15,2013-03-15 14:30:00,
2013-03-15 09:35:00,59.9,57.0,30.14,SSW,195,9.0,12.0,90,0.00,,,0.00,322,Wunderground v.1.15,2013-03-15 14:35:00,
2013-03-15 09:40:00,60.6,57.0,30.14,South,180,9.0,10.0,88,0.00,,,0.00,348,Wunderground v.1.15,2013-03-15 14:40:00,
2013-03-15 12:05:00,72.6,58.8,30.10,SW,214,9.0,9.0,62,0.00,,,0.00,775,Wunderground v.1.15,2013-03-15 17:05:00,
2013-03-15 12:10:00,73.5,59.2,30.10,SW,225,8.0,8.0,61,0.00,,,0.00,786,Wunderground v.1.15,2013-03-15 17:10:00,
2013-03-15 12:15:00,74.2,58.5,30.10,South,180,9.0,15.0,58,0.00,,,0.00,788,Wunderground v.1.15,2013-03-15 17:15:00,
2013-03-15 12:20:00,74.3,58.6,30.10,South,185,10.0,10.0,58,0.00,,,0.00,802,Wunderground v.1.15,2013-03-15 17:20:00,
2013-03-15 12:25:00,74.5,58.8,30.10,SW,221,10.0,11.0,58,0.00,,,0.00,810,Wunderground v.1.15,2013-03-15 17:25:00,
2013-03-15 12:30:00,75.0,58.7,30.10,SW,226,10.0,10.0,57,0.00,,,0.00,805,Wunderground v.1.15,2013-03-15 17:30:00,
2013-03-15 12:35:00,75.1,58.3,30.10,SSW,192,10.0,14.0,56,0.00,,,0.00,821,Wunderground v.1.15,2013-03-15 17:35:00,
2013-03-15 12:40:00,75.1,58.8,30.10,South,178,9.0,9.0,57,0.00,,,0.00,823,Wunderground v.1.15,2013-03-15 17:40:00,
2013-03-15 12:50:00,75.7,59.4,30.09,South,180,7.0,7.0,57,0.00,,,0.00,838,Wunderground v.1.15,2013-03-15 17:50:00,
2013-03-15 12:55:00,76.0,58.7,30.09,SSW,196,10.0,11.0,55,0.00,,,0.00,842,Wunderground v.1.15,2013-03-15 17:55:00,
2013-03-15 13:00:00,76.1,58.2,30.08,South,180,12.0,12.0,54,0.00,,,0.00,844,Wunderground v.1.15,2013-03-15 18:00:00,
2013-03-15 13:10:00,76.0,58.2,30.08,South,179,10.0,10.0,54,0.00,,,0.00,867,Wunderground v.1.15,2013-03-15 18:10:00,
2013-03-15 13:15:00,76.6,58.2,30.07,South,183,10.0,10.0,53,0.00,,,0.00,863,Wunderground v.1.15,2013-03-15 18:15:00,
2013-03-15 13:20:00,76.9,57.4,30.07,SSE,168,11.0,17.0,51,0.00,,,0.00,865,Wunderground v.1.15,2013-03-15 18:20:00,
2013-03-15 13:25:00,77.4,57.3,30.07,SSW,194,12.0,17.0,50,0.00,,,0.00,860,Wunderground v.1.15,2013-03-15 18:25:00,
2013-03-15 13:30:00,78.0,57.9,30.06,SSE,168,10.0,11.0,50,0.00,,,0.00,856,Wunderground v.1.15,2013-03-15 18:30:00,
2013-03-15 13:35:00,77.9,57.2,30.06,SSW,192,8.0,14.0,49,0.00,,,0.00,863,Wunderground v.1.15,2013-03-15 18:35:00,
2013-03-15 13:40:00,78.3,57.6,30.06,SSE,150,10.0,15.0,49,0.00,,,0.00,874,Wunderground v.1.15,2013-03-15 18:40:00,
2013-03-15 13:45:00,78.2,57.5,30.05,South,186,13.0,15.0,49,0.00,,,0.00,860,Wunderground v.1.15,2013-03-15 18:45:00,
2013-03-15 13:50:00,78.3,56.4,30.05,SSW,201,14.0,14.0,47,0.00,,,0.00,863,Wunderground v.1.15,2013-03-15 18:50:00,
2013-03-15 14:00:00,78.1,56.2,30.04,SSW,200,9.0,23.0,47,0.00,,,0.00,860,Wunderground v.1.15,2013-03-15 19:00:00,
2013-03-15 14:10:00,78.2,55.1,30.04,SE,137,13.0,13.0,45,0.00,,,0.00,840,Wunderground v.1.15,2013-03-15 19:10:00,
2013-03-15 14:15:00,77.9,56.0,30.02,South,188,10.0,21.0,47,0.00,,,0.00,847,Wunderground v.1.15,2013-03-15 19:15:00,
2013-03-15 14:20:00,78.7,56.8,30.02,SSE,154,9.0,9.0,47,0.00,,,0.00,849,Wunderground v.1.15,2013-03-15 19:20:00,
2013-03-15 14:25:00,78.5,56.0,30.02,South,181,11.0,13.0,46,0.00,,,0.00,860,Wunderground v.1.15,2013-03-15 19:25:00,
2013-03-15 14:30:00,78.7,56.2,30.01,SSW,197,11.0,16.0,46,0.00,,,0.00,847,Wunderground v.1.15,2013-03-15 19:30:00,
2013-03-15 14:35:00,80.0,56.1,30.01,SSW,194,13.0,16.0,44,0.00,,,0.00,824,Wunderground v.1.15,2013-03-15 19:35:00,
2013-03-15 14:45:00,79.2,54.8,30.00,South,174,11.0,21.0,43,0.00,,,0.00,823,Wunderground v.1.15,2013-03-15 19:45:00,
2013-03-15 14:50:00,79.8,54.7,30.00,SSE,155,11.0,11.0,42,0.00,,,0.00,814,Wunderground v.1.15,2013-03-15 19:50:00,
2013-03-15 14:55:00,79.7,54.6,30.00,SW,217,10.0,11.0,42,0.00,,,0.00,805,Wunderground v.1.15,2013-03-15 19:55:00,
2013-03-15 15:00:00,80.1,54.3,29.99,South,170,9.0,11.0,41,0.00,,,0.00,802,Wunderground v.1.15,2013-03-15 20:00:00,
2013-03-15 15:06:00,80.4,53.9,29.99,South,181,12.0,12.0,40,0.00,,,0.00,789,Wunderground v.1.15,2013-03-15 20:06:00,
2013-03-15 15:15:00,80.6,52.6,29.98,SSE,161,11.0,12.0,38,0.00,,,0.00,780,Wunderground v.1.15,2013-03-15 20:15:00,
2013-03-15 15:20:00,80.4,51.7,29.98,SSE,153,11.0,11.0,37,0.00,,,0.00,775,Wunderground v.1.15,2013-03-15 20:20:00,
2013-03-15 15:25:00,80.6,51.9,29.98,South,182,11.0,19.0,37,0.00,,,0.00,763,Wunderground v.1.15,2013-03-15 20:25:00,
2013-03-15 15:30:00,80.5,52.6,29.97,South,190,13.0,13.0,38,0.00,,,0.00,747,Wunderground v.1.15,2013-03-15 20:30:00,
2013-03-15 15:36:00,80.3,52.4,29.97,SSE,167,10.0,13.0,38,0.00,,,0.00,735,Wunderground v.1.15,2013-03-15 20:36:00,
2013-03-15 15:40:00,80.9,52.9,29.97,South,178,11.0,22.0,38,0.00,,,0.00,733,Wunderground v.1.15,2013-03-15 20:40:00,
2013-03-15 15:45:00,81.2,52.4,29.96,South,178,14.0,22.0,37,0.00,,,0.00,719,Wunderground v.1.15,2013-03-15 20:45:00,
2013-03-15 15:50:00,81.1,51.6,29.96,South,169,12.0,12.0,36,0.00,,,0.00,708,Wunderground v.1.15,2013-03-15 20:50:00,
2013-03-15 15:55:00,81.1,50.9,29.96,SSE,150,10.0,12.0,35,0.00,,,0.00,696,Wunderground v.1.15,2013-03-15 20:55:00,
2013-03-15 16:00:00,80.2,50.8,29.96,SSE,163,11.0,11.0,36,0.00,,,0.00,680,Wunderground v.1.15,2013-03-15 21:00:00,
2013-03-15 16:06:00,80.5,51.1,29.96,South,183,10.0,20.0,36,0.00,,,0.00,671,Wunderground v.1.15,2013-03-15 21:06:00,
2013-03-15 16:10:00,80.4,49.5,29.96,SSE,157,11.0,11.0,34,0.00,,,0.00,659,Wunderground v.1.15,2013-03-15 21:10:00,
2013-03-15 16:15:00,80.5,50.3,29.95,South,191,11.0,22.0,35,0.00,,,0.00,649,Wunderground v.1.15,2013-03-15 21:15:00,
2013-03-15 16:20:00,81.3,49.4,29.95,South,172,12.0,12.0,33,0.00,,,0.00,631,Wunderground v.1.15,2013-03-15 21:20:00,
2013-03-15 16:30:00,80.7,50.5,29.94,SSE,161,10.0,10.0,35,0.00,,,0.00,605,Wunderground v.1.15,2013-03-15 21:30:00,
2013-03-15 16:35:00,81.5,50.4,29.94,SSE,155,9.0,10.0,34,0.00,,,0.00,591,Wunderground v.1.15,2013-03-15 21:35:00,
2013-03-15 16:45:00,80.2,48.5,29.94,SSE,153,9.0,10.0,33,0.00,,,0.00,566,Wunderground v.1.15,2013-03-15 21:45:00,
2013-03-15 16:50:00,80.6,48.0,29.94,South,184,9.0,15.0,32,0.00,,,0.00,547,Wunderground v.1.15,2013-03-15 21:50:00,
2013-03-15 16:55:00,80.9,48.3,29.94,South,186,13.0,15.0,32,0.00,,,0.00,536,Wunderground v.1.15,2013-03-15 21:55:00,
2013-03-15 17:00:00,81.3,48.6,29.93,SSE,161,13.0,13.0,32,0.00,,,0.00,520,Wunderground v.1.15,2013-03-15 22:00:00,
2013-03-15 17:06:00,81.2,48.5,29.93,South,180,13.0,14.0,32,0.00,,,0.00,497,Wunderground v.1.15,2013-03-15 22:06:00,
2013-03-15 17:10:00,81.4,48.7,29.93,South,189,14.0,14.0,32,0.00,,,0.00,480,Wunderground v.1.15,2013-03-15 22:10:00,
2013-03-15 17:20:00,81.4,48.7,29.93,SE,144,12.0,12.0,32,0.00,,,0.00,450,Wunderground v.1.15,2013-03-15 22:20:00,
2013-03-15 17:30:00,80.9,47.4,29.92,South,187,11.0,11.0,31,0.00,,,0.00,422,Wunderground v.1.15,2013-03-15 22:30:00,
2013-03-15 17:35:00,81.0,47.5,29.92,South,180,10.0,23.0,31,0.00,,,0.00,406,Wunderground v.1.15,2013-03-15 22:35:00,
2013-03-15 17:40:00,80.7,46.4,29.92,South,177,10.0,10.0,30,0.00,,,0.00,387,Wunderground v.1.15,2013-03-15 22:40:00,
2013-03-15 17:50:00,80.7,46.4,29.92,SSW,192,14.0,15.0,30,0.00,,,0.00,353,Wunderground v.1.15,2013-03-15 22:50:00,
2013-03-15 18:00:00,80.3,46.0,29.92,South,173,10.0,14.0,30,0.00,,,0.00,320,Wunderground v.1.15,2013-03-15 23:00:00,
2013-03-15 18:10:00,79.9,45.7,29.92,SSE,163,10.0,13.0,30,0.00,,,0.00,287,Wunderground v.1.15,2013-03-15 23:10:00,
2013-03-15 18:15:00,79.9,44.8,29.92,South,176,10.0,13.0,29,0.00,,,0.00,267,Wunderground v.1.15,2013-03-15 23:15:00,
2013-03-15 18:20:00,79.9,45.7,29.92,South,174,12.0,16.0,30,0.00,,,0.00,250,Wunderground v.1.15,2013-03-15 23:20:00,
2013-03-15 18:25:00,79.6,45.4,29.92,SSE,167,11.0,16.0,30,0.00,,,0.00,229,Wunderground v.1.15,2013-03-15 23:25:00,
2013-03-15 18:30:00,79.4,45.3,29.92,SSW,194,11.0,15.0,30,0.00,,,0.00,216,Wunderground v.1.15,2013-03-15 23:30:00,
2013-03-15 18:35:00,79.4,45.3,29.92,South,191,12.0,15.0,30,0.00,,,0.00,127,Wunderground v.1.15,2013-03-15 23:35:00,
2013-03-15 18:40:00,79.3,45.2,29.92,South,178,12.0,13.0,30,0.00,,,0.00,44,Wunderground v.1.15,2013-03-15 23:40:00,
2013-03-15 18:45:00,79.1,45.0,29.92,SE,142,12.0,13.0,30,0.00,,,0.00,49,Wunderground v.1.15,2013-03-15 23:45:00,
2013-03-15 18:50:00,78.7,45.5,29.92,South,171,12.0,12.0,31,0.00,,,0.00,58,Wunderground v.1.15,2013-03-15 23:50:00,
2013-03-15 19:00:00,78.4,45.3,29.92,South,171,9.0,9.0,31,0.00,,,0.00,39,Wunderground v.1.15,2013-03-16 00:00:00,
2013-03-15 19:10:00,78.1,45.8,29.92,South,172,8.0,8.0,32,0.00,,,0.00,30,Wunderground v.1.15,2013-03-16 00:10:00,
2013-03-15 19:15:00,78.0,44.9,29.92,SSE,161,9.0,9.0,31,0.00,,,0.00,26,Wunderground v.1.15,2013-03-16 00:15:00,
2013-03-15 19:20:00,77.8,45.6,29.92,South,181,7.0,8.0,32,0.00,,,0.00,19,Wunderground v.1.15,2013-03-16 00:20:00,
2013-03-15 19:25:00,77.5,44.5,29.92,South,187,7.0,12.0,31,0.00,,,0.00,16,Wunderground v.1.15,2013-03-16 00:25:00,
2013-03-15 19:30:00,77.3,45.1,29.91,South,170,9.0,9.0,32,0.00,,,0.00,14,Wunderground v.1.15,2013-03-16 00:30:00,
2013-03-15 19:35:00,77.0,44.9,29.91,SSE,168,8.0,9.0,32,0.00,,,0.00,9,Wunderground v.1.15,2013-03-16 00:35:00,
2013-03-15 19:40:00,76.7,44.6,29.91,South,171,7.0,7.0,32,0.00,,,0.00,5,Wunderground v.1.15,2013-03-16 00:40:00,
2013-03-15 19:45:00,76.4,45.2,29.91,South,169,6.0,7.0,33,0.00,,,0.00,0,Wunderground v.1.15,2013-03-16 00:45:00,
2013-03-15 19:50:00,76.1,44.9,29.91,SSE,168,5.0,6.0,33,0.00,,,0.00,0,Wunderground v.1.15,2013-03-16 00:50:00,
2013-03-15 19:55:00,75.8,45.4,29.91,SSE,168,4.0,6.0,34,0.00,,,0.00,0,Wunderground v.1.15,2013-03-16 00:55:00,
2013-03-15 20:00:00,75.4,45.1,29.91,SSE,167,4.0,4.0,34,0.00,,,0.00,0,Wunderground v.1.15,2013-03-16 01:00:00,
2013-03-15 20:10:00,74.7,46.0,29.91,SE,137,5.0,5.0,36,0.00,,,0.00,0,Wunderground v.1.15,2013-03-16 01:10:00,
2013-03-15 20:15:00,74.4,49.2,29.92,SE,140,7.0,9.0,41,0.00,,,0.00,0,Wunderground v.1.15,2013-03-16 01:15:00,
2013-03-15 20:20:00,74.2,52.7,29.92,SSE,148,8.0,8.0,47,0.00,,,0.00,0,Wunderground v.1.15,2013-03-16 01:20:00,
2013-03-15 20:25:00,73.9,53.0,29.92,ESE,123,8.0,9.0,48,0.00,,,0.00,0,Wunderground v.1.15,2013-03-16 01:25:00,
2013-03-15 20:30:00,73.6,53.8,29.92,SSE,152,10.0,10.0,50,0.00,,,0.00,0,Wunderground v.1.15,2013-03-16 01:30:00,
2013-03-15 20:35:00,73.3,54.1,29.92,SSE,161,11.0,12.0,51,0.00,,,0.00,0,Wunderground v.1.15,2013-03-16 01:35:00,
2013-03-15 20:45:00,72.8,54.1,29.93,SE,140,9.0,10.0,52,0.00,,,0.00,0,Wunderground v.1.15,2013-03-16 01:45:00,
2013-03-15 20:50:00,72.5,53.9,29.93,SE,137,7.0,14.0,52,0.00,,,0.00,0,Wunderground v.1.15,2013-03-16 01:50:00,
2013-03-15 21:00:00,71.8,53.2,29.93,SSE,153,10.0,12.0,52,0.00,,,0.00,0,Wunderground v.1.15,2013-03-16 02:00:00,
2013-03-15 21:06:00,71.4,52.9,29.93,SE,142,9.0,12.0,52,0.00,,,0.00,0,Wunderground v.1.15,2013-03-16 02:06:00,
2013-03-15 21:10:00,71.2,52.7,29.93,SE,139,8.0,8.0,52,0.00,,,0.00,0,Wunderground v.1.15,2013-03-16 02:10:00,
2013-03-15 21:15:00,70.9,52.9,29.93,SSE,150,7.0,12.0,53,0.00,,,0.00,0,Wunderground v.1.15,2013-03-16 02:15:00,
2013-03-15 21:20:00,70.5,53.1,29.93,SE,138,7.0,7.0,54,0.00,,,0.00,0,Wunderground v.1.15,2013-03-16 02:20:00,
2013-03-15 21:25:00,70.1,52.7,29.93,SE,136,7.0,7.0,54,0.00,,,0.00,0,Wunderground v.1.15,2013-03-16 02:25:00,
2013-03-15 21:30:00,69.8,52.9,29.94,SE,133,9.0,9.0,55,0.00,,,0.00,0,Wunderground v.1.15,2013-03-16 02:30:00,
2013-03-15 21:35:00,69.5,53.1,29.94,SE,145,9.0,11.0,56,0.00,,,0.00,0,Wunderground v.1.15,2013-03-16 02:35:00,
2013-03-15 21:40:00,69.2,52.8,29.94,SSE,151,9.0,9.0,56,0.00,,,0.00,0,Wunderground v.1.15,2013-03-16 02:40:00,
2013-03-15 21:45:00,68.9,52.6,29.94,SSE,154,8.0,10.0,56,0.00,,,0.00,0,Wunderground v.1.15,2013-03-16 02:45:00,
2013-03-15 21:50:00,68.6,52.3,29.94,SE,144,8.0,15.0,56,0.00,,,0.00,0,Wunderground v.1.15,2013-03-16 02:50:00,
2013-03-15 21:55:00,68.3,52.0,29.94,SE,134,10.0,15.0,56,0.00,,,0.00,0,Wunderground v.1.15,2013-03-16 02:55:00,
2013-03-15 22:00:00,68.0,51.7,29.93,SSE,150,10.0,11.0,56,0.00,,,0.00,0,Wunderground v.1.15,2013-03-16 03:00:00,
2013-03-15 22:06:00,67.7,51.9,29.93,SE,141,9.0,13.0,57,0.00,,,0.00,0,Wunderground v.1.15,2013-03-16 03:06:00,
2013-03-15 22:10:00,67.5,51.7,29.93,SSE,158,9.0,9.0,57,0.00,,,0.00,0,Wunderground v.1.15,2013-03-16 03:10:00,
2013-03-15 22:15:00,67.2,51.4,29.94,SSE,153,9.0,14.0,57,0.00,,,0.00,0,Wunderground v.1.15,2013-03-16 03:15:00,
2013-03-15 22:20:00,66.9,51.2,29.94,SSE,153,9.0,9.0,57,0.00,,,0.00,0,Wunderground v.1.15,2013-03-16 03:20:00,
2013-03-15 22:25:00,66.7,51.5,29.94,SE,144,8.0,10.0,58,0.00,,,0.00,0,Wunderground v.1.15,2013-03-16 03:25:00,
2013-03-15 22:36:00,66.2,51.0,29.94,SSE,147,8.0,11.0,58,0.00,,,0.00,0,Wunderground v.1.15,2013-03-16 03:36:00,
2013-03-15 22:40:00,66.0,50.8,29.94,SE,143,7.0,7.0,58,0.00,,,0.00,0,Wunderground v.1.15,2013-03-16 03:40:00,
2013-03-15 22:45:00,65.8,51.1,29.93,SSE,163,7.0,11.0,59,0.00,,,0.00,0,Wunderground v.1.15,2013-03-16 03:45:00,
2013-03-15 22:50:00,65.6,51.3,29.93,SSE,159,8.0,10.0,60,0.00,,,0.00,0,Wunderground v.1.15,2013-03-16 03:50:00,
2013-03-15 22:55:00,65.5,51.2,29.93,SE,138,8.0,11.0,60,0.00,,,0.00,0,Wunderground v.1.15,2013-03-16 03:55:00,
2013-03-15 23:00:00,65.2,51.4,29.93,SE,140,7.0,13.0,61,0.00,,,0.00,0,Wunderground v.1.15,2013-03-16 04:00:00,
2013-03-15 23:10:00,64.9,52.0,29.93,SE,129,8.0,8.0,63,0.00,,,0.00,0,Wunderground v.1.15,2013-03-16 04:10:00,
2013-03-15 23:15:00,64.7,52.7,29.93,SE,146,8.0,14.0,65,0.00,,,0.00,0,Wunderground v.1.15,2013-03-16 04:15:00,
2013-03-15 23:20:00,64.5,52.9,29.93,SE,145,8.0,8.0,66,0.00,,,0.00,0,Wunderground v.1.15,2013-03-16 04:20:00,
2013-03-15 23:25:00,64.3,53.1,29.93,SSE,163,7.0,8.0,67,0.00,,,0.00,0,Wunderground v.1.15,2013-03-16 04:25:00,
2013-03-15 23:30:00,64.1,53.3,29.93,SE,136,7.0,7.0,68,0.00,,,0.00,0,Wunderground v.1.15,2013-03-16 04:30:00,
2013-03-15 23:35:00,64.0,53.6,29.93,SSE,150,6.0,7.0,69,0.00,,,0.00,0,Wunderground v.1.15,2013-03-16 04:35:00,
2013-03-15 23:45:00,63.7,54.5,29.93,South,172,8.0,10.0,72,0.00,,,0.00,0,Wunderground v.1.15,2013-03-16 04:45:00,
2013-03-15 23:50:00,63.5,54.3,29.93,SSE,164,7.0,7.0,72,0.00,,,0.00,0,Wunderground v.1.15,2013-03-16 04:50:00,
2013-03-15 23:55:00,63.4,54.6,29.93,South,172,7.0,7.0,73,0.00,,,0.00,0,Wunderground v.1.15,2013-03-16 04:55:00,